McCook, NE

5:42 AM CDT on April 29, 2017 (GMT -0500)
McCook Municipal

Weather History for KMCK - May, 2013

Change the Weather History Date:

Friday, May 24, 2013

  Actual Average Record
Temperature  
Mean Temperature 70 °F 62 °F  
Max Temperature 84 °F 76 °F 99 °F (1967)
Min Temperature 56 °F 49 °F 32 °F (1910)
Cooling Degree Days 4    
Growing Degree Days 18 (Base 50)    
Moisture  
Dew Point 56 °F    
Average Humidity 70    
Maximum Humidity 88    
Minimum Humidity 41    
Precipitation  
Precipitation 0.29 in 0.10 in 1.96 in (1965)
Month to date precipitation 0.70 2.33  
Year to date precipitation 4.27 7.13  
Sea Level Pressure  
Sea Level Pressure 30.02 in    
Wind  
Wind Speed 18 mph (SE)    
Max Wind Speed 32 mph    
Max Gust Speed 47 mph    
Visibility 9 miles    
Events Rain , Thunderstorm    
T = Trace of Precipitation, MM = Missing Value Source: NWS Daily Summary

Daily Weather History Graph

Daily Weather History Graph

Search for Another Location

Airport or City:

Trip Planner

Search our weather history database for the weather conditions in past years. The results will help you decide how hot, cold, wet, or windy it might be!

Date:

Astronomy

May. 24, 2013 Rise Set
Actual Time 6:19 AM CDT 8:59 PM CDT
Civil Twilight 5:47 AM CDT 9:31 PM CDT
Nautical Twilight 5:07 AM CDT 10:11 PM CDT
Astronomical Twilight 4:23 AM CDT 10:56 PM CDT
Moon 8:43 PM CDT (5/24) 5:52 AM CDT (5/24)
Length of Visible Light 15h 43m
Length of Day
14h 40m
Full, 100% of the Moon is Illuminated
May 24
Full
May 24
Full
May 31
Last Quarter
Jun 8
New
Jun 16
First Quarter

Hourly Weather History & Observations

Time (CDT) Temp. Heat Index Dew Point Humidity Pressure Visibility Wind Dir Wind Speed Gust Speed Precip Events Conditions
12:53 AM 57.0 °F - 48.9 °F 74% 30.14 in 10.0 mi ESE 12.7 mph - N/A   Mostly Cloudy
1:53 AM 57.0 °F - 50.0 °F 77% 30.13 in 10.0 mi ESE 15.0 mph - N/A   Overcast
2:53 AM 55.9 °F - 51.1 °F 84% 30.12 in 9.0 mi ESE 13.8 mph 23.0 mph N/A   Overcast
3:53 AM 55.9 °F - 51.1 °F 84% 30.12 in 8.0 mi SE 15.0 mph 23.0 mph N/A   Overcast
4:03 AM 55.4 °F - 51.8 °F 88% 30.14 in 8.0 mi SE 12.7 mph 20.7 mph N/A   Overcast
4:53 AM 55.9 °F - 51.1 °F 84% 30.10 in 9.0 mi ESE 11.5 mph 18.4 mph N/A   Overcast
5:53 AM 55.9 °F - 51.1 °F 84% 30.08 in 10.0 mi ESE 16.1 mph 19.6 mph N/A   Overcast
6:53 AM 57.0 °F - 52.0 °F 83% 30.08 in 9.0 mi SE 17.3 mph 25.3 mph N/A   Overcast
7:53 AM 57.0 °F - 53.1 °F 87% 30.08 in 7.0 mi SSE 21.9 mph 27.6 mph N/A   Overcast
8:53 AM 59.0 °F - 53.1 °F 81% 30.10 in 9.0 mi SSE 23.0 mph 32.2 mph N/A   Overcast
9:29 AM 60.8 °F - 53.6 °F 77% 30.12 in 10.0 mi SSE 20.7 mph 31.1 mph N/A   Overcast
9:53 AM 63.0 °F - 53.1 °F 70% 30.09 in 10.0 mi SSE 23.0 mph 32.2 mph N/A   Overcast
10:53 AM 66.0 °F - 54.0 °F 65% 30.06 in 10.0 mi SSE 25.3 mph 32.2 mph N/A   Overcast
11:53 AM 70.0 °F - 55.0 °F 59% 30.04 in 10.0 mi South 24.2 mph 32.2 mph N/A   Mostly Cloudy
12:01 PM 69.8 °F - 55.4 °F 60% 30.08 in 10.0 mi SSE 20.7 mph 34.5 mph N/A   Scattered Clouds
12:22 PM 68.0 °F - 55.4 °F 64% 30.08 in 10.0 mi SSE 16.1 mph 25.3 mph N/A   Mostly Cloudy
12:53 PM 66.0 °F - 55.0 °F 68% 30.05 in 10.0 mi SSE 19.6 mph 28.8 mph N/A   Overcast
1:53 PM 71.1 °F - 57.9 °F 63% 30.01 in 10.0 mi SE 17.3 mph 25.3 mph N/A   Scattered Clouds
2:53 PM 78.1 °F - 57.9 °F 50% 29.97 in 10.0 mi SSE 28.8 mph 38.0 mph N/A   Clear
3:53 PM 79.0 °F - 57.0 °F 47% 29.94 in 9.0 mi SSE 25.3 mph 31.1 mph N/A   Mostly Cloudy
4:53 PM 80.1 °F 80.2 °F 55.9 °F 43% 29.92 in 10.0 mi SSE 23.0 mph 33.4 mph N/A   Mostly Cloudy
5:53 PM 82.9 °F 82.4 °F 57.0 °F 41% 29.88 in 10.0 mi SE 25.3 mph 39.1 mph N/A   Partly Cloudy
6:53 PM 82.0 °F 81.7 °F 57.0 °F 42% 29.85 in 9.0 mi SSE 21.9 mph 35.7 mph N/A   Clear
7:53 PM 77.0 °F - 60.1 °F 56% 29.90 in 8.0 mi SSE 20.7 mph 26.5 mph N/A   Partly Cloudy
8:53 PM 73.0 °F - 61.0 °F 66% 29.88 in 8.0 mi SE 18.4 mph 27.6 mph 0.00 in   Partly Cloudy
9:53 PM 71.1 °F - 62.1 °F 73% 29.90 in 7.0 mi ESE 15.0 mph - N/A   Mostly Cloudy
10:53 PM 70.0 °F - 63.0 °F 78% 29.94 in 7.0 mi ENE 12.7 mph - N/A   Overcast
11:04 PM 69.8 °F - 62.6 °F 78% 29.98 in 7.0 mi East 13.8 mph - N/A Thunderstorm Overcast
11:42 PM 69.8 °F - 66.2 °F 88% 29.95 in 2.5 mi SSE 31.1 mph 42.6 mph 0.11 in Rain , Thunderstorm Thunderstorms and Rain
11:53 PM 70.0 °F - 66.0 °F 87% 29.87 in 2.0 mi SSE 32.2 mph 47.2 mph 0.23 in Rain , Thunderstorm Light Thunderstorms and Rain